Powrót do katalogu

STARLINK-36353

AktywnyŁącznośćSSO
NORAD 67820·PAYLOAD·🇺🇸 United States

Wystrzelony Feb 15, 2026 z Vandenberg Space Force Base

Loading…

Następne Przeloty (najbliższe 24 godziny)

TLE

ŚwieżeSource: CelesTrak SupGP

Epoka: Sep 15, 2026, 03:12 UTC

1 67820C 26032Z   26258.13381944 -.00048571  00000+0 -15075-2 0  2586
2 67820  97.2859  84.6258 0001507  94.4002 257.3851 15.33468889    17

Śledź STARLINK-36353 w czasie rzeczywistym z AllMySat

Download on the App Store